Miscellaneous Local Product
Issued by NWS North Platte, NE

Home | Current Version | Previous Version | Text Only | Print | Product List | Glossary On
Versions: 1 2 3 4 5 6 7 8 9 10 11 12 13 14 15 16 17 18 19 20 21 22 23 24 25 26 27 28 29 30 31 32 33 34 35 36 37 38 39 40 41 42 43 44 45 46 47 48 49 50
000
AXUS43 KLBF 240910
MISLBF


WESTERN AND NORTH CENTRAL NEBRASKA HOURLY WEATHER ROUNDUP
NATIONAL WEATHER SERVICE NORTH PLATTE NE
400 AM CDT WED MAY 24 2017

NOTE: "FAIR" INDICATES FEW OR NO CLOUDS BELOW 12,000 FEET WITH NO
SIGNIFICANT WEATHER AND/OR OBSTRUCTIONS TO VISIBILITY.

NOTE: STATIONS NOT REPORTING VARIABLES SUCH AS SKY/WEATHER OR
PRESSURE ARE PROVIDED BY RAWS AND APRS NETWORKS AND ARE NOT UNDER
NATIONAL WEATHER SERVICE QUALITY CONTROL.

...OBSERVATIONS IN AND NEAR THE EASTERN PANHANDLE OF NEBRASKA...

CITY           SKY/WX    TMP DP  RH WIND       PRES   REMARKS
PINE RIDGE     CLEAR     35  34  96 CALM      29.90F
GORDON         FAIR      32  30  92 CALM      29.91F
CHADRON        CLEAR     40  35  83 CALM      29.90F
ALLIANCE       CLEAR     34  31  88 CALM      29.92F
SIDNEY         CLEAR     31  30  96 SW8       29.96F WCI  23
CRESCENT LAKE    N/A     37  35  91 SW6         N/A  WCI  32
$$

...OBSERVATIONS IN NORTHERN NEBRASKA AND FAR SOUTHERN SOUTH DAKOTA...

CITY           SKY/WX    TMP DP  RH WIND       PRES   REMARKS
WINNER         FAIR      39  37  92 SW7       29.89F WCI  34
VALENTINE      CLEAR     35  32  88 W6        29.91F WCI  30
THEDFORD       CLEAR     35  34  96 W5        29.92F WCI  31
AINSWORTH      CLEAR     37  37  97 W6        29.90F WCI  33
O`NEILL        CLEAR     43  40  90 NW7       29.88S
ORD            CLEAR     40  37  89 NW7       29.87F
BROKEN BOW     CLEAR     43  39  86 NW13      29.89F
VALENTINE NWR    N/A     37  35  94 W3          N/A
HALSEY           N/A     37  35  94 CALM        N/A
BUTTE            N/A     39  37  94 NW6         N/A  WCI  35
CHAMBERS         N/A     42  40  92 CALM        N/A
EWING            N/A     43  41  93 N3          N/A
$$

...OBSERVATIONS IN SOUTHWEST NEBRASKA AND FAR NORTHEAST COLORADO...

CITY           SKY/WX    TMP DP  RH WIND       PRES   REMARKS
WRAY           FAIR      36  34  93 CALM      29.97F
IMPERIAL       CLEAR     37  33  85 NW3       29.94F
OGALLALA       CLEAR     37  35  94 W3        29.94F
NORTH PLATTE   CLEAR     33  32  96 NW6       29.93F WCI  28
MCCOOK         CLEAR     39  37  92 NW9       29.93F WCI  33
LEXINGTON      PTCLDY    41  38  91 NW8       29.91F
STAPLETON        N/A     35  33  91 CALM        N/A
GOTHENBURG       N/A     39  35  86 NW5         N/A
CALLAWAY         N/A     40  37  90 NW8         N/A  WCI  34
$$

...OBSERVATIONS IN CENTRAL LINCOLN COUNTY AREA...

CITY           SKY/WX    TMP DP  RH WIND       PRES   REMARKS
N.P. AIRPORT   CLEAR     33  32  96 NW6       29.93F WCI  28
N.P. DOWNTOWN    N/A     38  36  91 CALM        N/A
N.P. SOUTHEAST   N/A     38  34  87 CALM        N/A
N.P. HILLCREST   N/A     37  35  91 NW3         N/A
$$

...SOME OBSERVATIONS FROM AROUND THE REGION...

CITY           SKY/WX    TMP DP  RH WIND       PRES   REMARKS
DENVER         CLEAR     41  33  73 S10       29.97F
LIMON          CLEAR     28  27  96 N5        29.99F WCI  23
ASPEN          CLOUDY    35  28  75 S6        30.17F WCI  30
LARAMIE        CLOUDY    35  30  82 SW10      29.99F WCI  27
CASPER         CLOUDY    44  34  67 SW10      29.86F
CHEYENNE       CLOUDY    38  32  79 SW12      29.96F WCI  30
SCOTTSBLUFF    CLOUDY    39  35  86 E7        29.92F WCI  34
GRAND ISLAND   CLOUDY    49  43  80 NW12      29.86F
OMAHA          CLOUDY    51  46  83 N12       29.77F
SIOUX FALLS    CLEAR     45  44  97 N7        29.82F
PIERRE         CLEAR     36  34  92 CALM      29.87F
RAPID CITY     CLEAR     38  33  82 SE5       29.88F WCI  34
BISMARCK       PTCLDY    39  36  89 E5        29.87F
KANSAS CITY    PTCLDY    48  46  93 NW8       29.73F
HILL CITY      CLEAR     42  39  89 NW10      29.92F
WICHITA        PTCLDY    48  43  82 NW9       29.85S
DODGE CITY     CLEAR     42  37  82 NW9       29.93F
OKLAHOMA CITY  PTCLDY    52  45  77 NW9       29.86F
DALLAS         CLEAR     61  49  64 NW13      29.83R
AMARILLO       CLEAR     44  35  70 W7        30.00F
$$




USA.gov is the U.S. government's official web portal to all federal, state and local government web resources and services.